Location: Unspecified
(50.7693°N, 0.0000°E)
Time: 05:27:18
(UTC+00:00)

Transit 4A - Pass Details

Date: 29 June 2019
Orbit: 862 x 982 km, 66.8° (Epoch: 21 July)

Event Time Altitude Azimuth Distance (km) Brightness Sun altitude
Rises 08:19:57 0° 245° (WSW) 3,648 10.6 39.2°
Reaches altitude 10° 08:22:40 10° 253° (WSW) 2,716 10.0 39.6°
Maximum altitude 08:28:38 40° 322° (NW) 1,406 8.9 40.5°
Drops below altitude 10° 08:34:41 10° 32° (NNE) 2,746 10.7 41.4°
Sets 08:37:27 0° 39° (NE) 3,693 11.3 41.9°
